STARLINK-1771 (46384 NORAD) Tracking and Keplerian Element Data

This shows tracking and keplerian element data for the satellite.

Feedback or suggestion? Click here.




ElementValue
Catalog46384
NameSTARLINK-1771
Epoch Orbit175
Epoch Day335.91670139
Epoch Year2020
RAAN17.275
Inclination52.9981
Eccentricity0.0001126
Argument of Perigee82.3334
Mean Anonmoly127.0134
Mean Motion15.05583314
Decay Rate0.00019229
L11 46384U 20062BM 20335.91670139 .00019229 00000-0 13352-2 0 9993
L22 46384 52.9981 17.2750 0001126 82.3334 127.0134 15.05583314 1752

Live tracking and technical data element details for STARLINK-1771 (NORAD 46384). STARLINK-1771 can be tracked NOW for your location showing map with azimuth and elevation plus other details from your city location.

Track the satellite on the map from your city or location and see movement details for azimuth, elevation, latitude, longitude, range, height, and movement on the map or in text.







IsCatalogInMostPopularTable: catalog: 46384, numindb: 70
Update: records affected: 1



GetName: 46384 STARLINK-1771

Hit Count: updated at: Wed, 02 Dec 2020 05:35:31 GMT